Miscellaneous Local Product
Issued by NWS Hastings, NE

Home | Current Version | Previous Version | Graphics & Text | Print | Product List | Glossary On
Versions: 1 2 3 4 5 6 7 8 9 10 11 12 13 14 15 16 17 18 19 20 21 22 23 24 25 26 27 28 29 30 31 32 33 34 35 36 37 38 39 40 41 42 43 44 45 46 47 48 49 50
000
AXUS43 KGID 212302
MISGRI

GID CWA HOURLY WEATHER ROUNDUP
NATIONAL WEATHER SERVICE HASTINGS NE
500 PM CST SUN DEC 21 2014

NOTE: "FAIR" INDICATES FEW OR NO CLOUDS BELOW 12,000 FEET WITH NO
SIGNIFICANT WEATHER AND/OR OBSTRUCTIONS TO VISIBILITY.

...SOUTH CENTRAL NEBRASKA...

CITY           SKY/WX    TMP DP  RH WIND       PRES   REMARKS
GRAND ISLAND   CLOUDY    41  38  89 S15       29.63R
HASTINGS       CLOUDY    40  37  89 S9        29.62S FOG     WCI  34
KEARNEY        CLOUDY    39  36  87 SE10      29.59F WCI  32
ORD            CLOUDY    37  35  92 VRB5      29.57  FOG     WCI  33
YORK           CLOUDY    41  39  93 S15G24    29.66R
AURORA         CLOUDY    40  40 100 S16       29.63S WCI  32
LEXINGTON      CLOUDY    39  37  92 S8        29.57S FOG     WCI  33
HOLDREGE       CLOUDY    40  36  86 S3        29.59F
HEBRON         LGT RAIN  41  39  91 S12       29.68F

...NEBRASKA PANHANDLE...

CITY           SKY/WX    TMP DP  RH WIND       PRES   REMARKS
CHADRON        CLOUDY    43  31  62 W13       29.44R
ALLIANCE       CLOUDY    38  32  79 W10       29.45R WCI  31
SCOTTSBLUFF    CLOUDY    41  32  70 NW10G20   29.47R
SIDNEY         CLOUDY    43  32  65 NW10      29.50S

...WESTERN AND NORTH CENTRAL NEBRASKA...

CITY           SKY/WX    TMP DP  RH WIND       PRES   REMARKS
VALENTINE      CLOUDY    39  31  72 SW10      29.41F WCI  32
AINSWORTH      CLOUDY    38  31  75 S15       29.43F WCI  30
ONEILL         CLOUDY    36  34  95 S16       29.54S WCI  26
BROKEN BOW     CLOUDY    37  34  89 S8        29.54F WCI  31
IMPERIAL       CLOUDY    44  31  60 S8        29.50F
NORTH PLATTE   CLOUDY    39  32  76 SE6       29.50F WCI  35
MCCOOK         CLOUDY    38  32  79 S9        29.54F WCI  31

...EASTERN NEBRASKA...

CITY           SKY/WX    TMP DP  RH WIND       PRES   REMARKS
NORFOLK        CLOUDY    41  39  93 S10G20    29.61R
SO SIOUX CITY  CLOUDY    42  38  85 S15G24    29.66F
TEKAMAH        CLOUDY    41  38  89 S14       29.69F
COLUMBUS       CLOUDY    41  36  81 S20G25    29.66S
ALBION         CLOUDY    39  37  91 S13       29.60F FOG     WCI  32
OMAHA EPPLEY   CLOUDY    41  38  89 S16       29.73F
OFFUTT AFB     CLOUDY    41  39  92 SE14      29.72F
MILLARD        CLOUDY    42  38  88 S10G16    29.72S
LINCOLN        CLOUDY    42  39  89 S18       29.69F FOG
NEBRASKA CITY  CLOUDY    41  41  99 S13       29.75S FOG
BEATRICE       CLOUDY    42  40  93 S16       29.71S
FALLS CITY     CLOUDY    43  39  86 S14       29.76F

...NORTHERN KANSAS...

CITY           SKY/WX    TMP DP  RH WIND       PRES   REMARKS
GOODLAND       CLOUDY    41  34  76 S7        29.54S
HILL CITY      CLOUDY    44  36  73 S10       29.60S
NORTON         CLEAR     43  34  70 S9        29.57R
PHILLIPSBURG   MOCLDY    46  37  71 SE8       29.62F
SMITH CENTER   CLOUDY    39  37  93 S14       29.64F WCI  31
BELOIT         CLOUDY    43  41  93 S10       29.67S
HAYS           CLOUDY    45  34  65 S14       29.62S
RUSSELL        CLOUDY    42  41  96 S10       29.63F
CONCORDIA      CLOUDY    42  41  96 S12       29.68F FOG
SALINA         CLOUDY    44  42  93 S13       29.71F FOG
TOPEKA         LGT RAIN  45  43  93 SE10      29.80F FOG



USA.gov is the U.S. government's official web portal to all federal, state and local government web resources and services.